#timestamp,LO_Frequency,Hit,StdDev 
1456128015.3,286046994.4,N
1456128035.1,286046993.5,N
1456128055.9,286046998.6,N
1456128075.7,286046995.7,N
1456128095.5,286046990.5,N
1456128115.3,286046988.2,N
1456128135.2,286046987.8,N
1456128155.0,286046989.8,N
1456128155.9,286046989.8,N
1456128175.7,286046989.6,N
1456128195.6,286046987.4,N
1456128215.4,286046988.6,N
1456128235.2,286046990.3,N
1456128255.1,286046992.8,N
1456128256.0,286046992.8,N
1456128275.8,286046994.5,N
1456128295.6,286046997.7,N
1456128315.5,286046990.0,N
1456128335.3,286046985.6,N
1456128355.1,286046991.4,N
1456128375.9,286046992.2,N
1456128395.7,286046996.3,N
1456128415.5,286046993.5,N
1456128435.4,286046997.8,N
1456128455.2,286046995.7,N
1456128475.0,286047001.1,N
1456128475.9,286047001.1,N
1456128495.8,286047000.7,N
1456128515.6,286046996.9,N
1456128535.4,286046999.5,N
1456128555.2,286046998.8,N
1456128575.1,286046996.9,N
1456128576.0,286046996.9,N
1456128595.8,286046995.5,N
1456128615.6,286046994.7,N
1456128635.5,286046992.1,N
1456128655.3,286046990.8,N
1456128675.1,286046989.6,N
1456128695.9,286046984.0,Y
1456128715.7,286046992.1,P
1456128735.5,286046996.2,P
1456128755.4,286046998.0,N
1456128775.2,286046994.3,N
1456128795.0,286046998.1,N
1456128795.9,286046998.1,N
1456128815.8,286047000.2,N
1456128835.6,286046999.8,N
1456128855.4,286046998.9,N
1456128875.3,286047001.1,N
1456128895.1,286047003.1,N
1456128896.0,286047003.1,N
1456128915.8,286047001.5,N
1456128935.7,286047003.4,N
1456128955.5,286047003.8,N
1456128975.3,286047003.4,N
1456128995.2,286047006.7,N
1456129015.9,286047008.9,N
1456129035.7,286047009.0,N
1456129055.5,286047006.2,N
1456129075.4,286047008.6,N
1456129095.2,286047011.3,N
1456129115.0,286047011.8,N
1456129115.9,286047011.8,N
1456129135.8,286047009.0,N
1456129155.6,286047007.2,N
1456129175.4,286047007.0,N
1456129195.3,286047009.1,N
1456129215.1,286047004.8,N
1456129216.0,286047004.8,N
1456129235.8,286047007.5,N
1456129255.7,286047003.0,N
1456129275.5,286047000.2,N
1456129295.3,286047000.0,N
1456129315.2,286047001.4,N
1456129335.9,286047001.3,N
1456129355.7,286046999.8,N
1456129375.6,286046998.2,N
1456129395.4,286046995.7,N
1456129415.2,286046999.6,N
1456129435.0,286046995.5,N
1456129436.0,286046995.5,N
1456129455.8,286046995.7,N
1456129475.6,286046993.3,N
1456129495.4,286046992.1,N
1456129515.3,286046993.1,N
1456129535.1,286046997.0,N
1456129555.8,286046998.1,N
1456129575.7,286046999.0,N
1456129595.5,286047000.8,N
1456129615.3,286046997.6,N
1456129635.2,286046993.7,N
1456129655.9,286046994.2,N
1456129675.7,286046992.9,N
1456129695.6,286046990.2,N
1456129715.4,286046987.7,N
1456129735.2,286046988.5,N
1456129755.1,286046990.2,N
1456129756.0,286046990.2,N
1456129775.8,286046990.2,N
1456129795.6,286046990.3,N
1456129815.4,286046992.5,N
1456129835.3,286046991.0,N
1456129855.1,286046990.9,N
1456129875.8,286046990.2,N
1456129895.7,286046995.2,N
1456129915.5,286046995.0,N
1456129935.3,286046999.3,N
1456129955.2,286047002.3,N
1456129975.9,286047004.8,N
1456129995.7,286047001.3,N
1456130015.6,286046996.6,N
1456130035.4,286046993.8,N
1456130055.2,286046992.9,N
1456130075.1,286046993.0,N
1456130076.0,286046993.0,N
1456130095.8,286046987.0,Y
1456130115.6,286046996.0,P
1456130135.5,286047000.7,N
1456130155.3,286046998.4,N
1456130175.1,286046995.7,N
1456130195.9,286046994.3,N
1456130215.7,286046992.8,Y
1456130235.5,286046994.4,P
1456130255.4,286046995.6,P
1456130275.2,286046996.4,P
1456130295.0,286046996.5,Y
1456130295.9,286046996.5,P
1456130315.8,286047005.8,P
1456130335.6,286047009.0,N
1456130355.4,286047005.7,N
1456130375.3,286047004.8,N
1456130395.1,286047000.9,N
1456130396.0,286047000.9,N
1456130415.8,286047001.6,N
1456130435.7,286047005.5,N
1456130455.5,286047005.5,N
1456130475.3,286047005.6,N
1456130495.2,286047003.5,N
1456130515.9,286047002.0,N
1456130535.7,286047000.5,N
1456130555.6,286047000.4,N
1456130575.4,286047002.1,N
1456130595.2,286047004.0,N
1456130615.0,286047006.3,N
1456130615.9,286047006.3,N
1456130635.8,286047009.8,N
1456130655.6,286047010.1,N
1456130675.4,286047011.0,N
1456130695.3,286047011.7,N
1456130715.1,286047008.0,N
1456130735.8,286047006.6,N
1456130755.7,286047006.3,N
1456130775.5,286047007.5,N
1456130795.3,286047009.2,N
1456130815.2,286047004.7,N
1456130835.9,286047004.4,N
1456130855.7,286047001.7,N
1456130875.6,286047004.3,N
1456130895.4,286047003.5,N
1456130915.2,286047003.7,N
1456130935.0,286047003.3,N
1456130936.0,286047003.3,N
1456130955.8,286047003.3,N
1456130975.6,286047003.0,N
1456130995.4,286047000.0,N
1456131015.3,286047001.6,N
1456131035.1,286047002.8,N
1456131055.8,286047002.6,N
1456131075.7,286047003.3,N
1456131095.5,286047004.9,N
1456131115.3,286047004.6,N
1456131135.2,286047006.0,N
1456131155.9,286047006.0,N
1456131175.7,286047006.2,N
1456131195.6,286047005.8,N
1456131215.4,286047004.4,N
1456131235.2,286047004.1,N
1456131255.1,286047003.3,N
1456131256.0,286047003.3,N
1456131275.8,286047005.7,N
1456131295.6,286047006.5,Y
1456131315.5,286047006.3,P
1456131335.3,286047006.4,P
1456131355.1,286047006.1,P
1456131375.9,286047008.0,Y
1456131395.7,286046996.7,P
1456131415.5,286046997.6,N
1456131435.4,286046995.7,N
1456131455.2,286046996.4,N
1456131475.0,286046991.4,N
1456131475.9,286046991.4,N
1456131495.7,286046990.8,N
1456131515.6,286046990.0,N
1456131535.4,286046991.4,N
1456131555.2,286046989.3,N
1456131575.1,286046987.7,N
1456131576.0,286046987.7,N
1456131595.8,286046986.8,N
